This is the latest recevied weather packets stored in our database for station/object WA4IKQ. If no packets are shown the sender has not sent any weather packets the latest 10 day(s).
| Time | Temp. | Humidity | Pressure | Rain* | Wind** | Luminosity | Snow |
|---|---|---|---|---|---|---|---|
| 1777082088 | 23.89° C | 67% | 1012.4 hPa | 0 mm | 0 m/s | - | - |
| 1777081928 | 23.89° C | 67% | 1012.3 hPa | 0 mm | 1.79 m/s, 107° | - | - |
| 1777081786 | 23.89° C | 67% | 1012.3 hPa | 0 mm | 1.79 m/s, 107° | - | - |
| 1777081705 | 23.89° C | 66% | 1012.2 hPa | 0 mm | 0.45 m/s, 62° | - | - |
| 1777081486 | 23.89° C | 66% | 1012.2 hPa | 0 mm | 0.45 m/s, 62° | - | - |
| 1777081405 | 23.89° C | 66% | 1012.3 hPa | 0 mm | 2.24 m/s, 90° | - | - |
| 1777081186 | 23.89° C | 66% | 1012.3 hPa | 0 mm | 2.24 m/s, 90° | - | - |
| 1777081122 | 23.89° C | 65% | 1012.3 hPa | 0 mm | 1.79 m/s, 117° | - | - |
| 1777081026 | 23.89° C | 65% | 1012.3 hPa | 0 mm | 1.79 m/s, 117° | - | - |
| 1777080887 | 23.89° C | 65% | 1012.3 hPa | 0 mm | 1.79 m/s, 117° | - | - |
| 1777080727 | 23.89° C | 65% | 1012.3 hPa | 0 mm | 1.79 m/s, 107° | - | - |
| 1777080587 | 23.89° C | 65% | 1012.3 hPa | 0 mm | 1.79 m/s, 107° | - | - |
| 1777080483 | 24.44° C | 64% | 1012.3 hPa | 0 mm | 0 m/s | - | - |
| 1777080287 | 24.44° C | 64% | 1012.3 hPa | 0 mm | 0 m/s | - | - |
| 1777080159 | 24.44° C | 63% | 1012.2 hPa | 0 mm | 1.34 m/s, 103° | - | - |
| 1777079988 | 24.44° C | 63% | 1012.2 hPa | 0 mm | 1.34 m/s, 103° | - | - |
| 1777079871 | 24.44° C | 63% | 1012.1 hPa | 0 mm | 0.89 m/s, 120° | - | - |
| 1777079685 | 24.44° C | 63% | 1012.1 hPa | 0 mm | 0.89 m/s, 120° | - | - |
| 1777079608 | 24.44° C | 62% | 1012.1 hPa | 0 mm | 2.24 m/s, 118° | - | - |
| 1777079385 | 24.44° C | 62% | 1012.1 hPa | 0 mm | 2.24 m/s, 118° | - | - |
| 1777079297 | 24.44° C | 61% | 1012 hPa | 0 mm | 1.34 m/s, 121° | - | - |
| 1777079086 | 24.44° C | 61% | 1012 hPa | 0 mm | 1.34 m/s, 121° | - | - |
| 1777079009 | 24.44° C | 60% | 1011.9 hPa | 0 mm | 1.79 m/s, 58° | - | - |
| 1777078786 | 24.44° C | 60% | 1011.9 hPa | 0 mm | 1.79 m/s, 58° | - | - |
| 1777078624 | 24.44° C | 59% | 1011.8 hPa | 0 mm | 0.89 m/s, 56° | - | - |
* Rain latest hour (hover to see other rain measurements)
** Current wind speed in m/s (hover to see current wind gust speed)